Location: Lichtensteig
(47.3376°N, 9.0841°E)
Time: 21:23:01
(UTC+00:00)

Cosmos 1486 Rocket - Pass Details

Date: 03 March 2021
Orbit: 758 x 784 km, 74.1° (Epoch: 14 April)

Event Time Altitude Azimuth Distance (km) Brightness Sun altitude
Rises 17:51:56 0° 338° (NNW) 3,255 7.5 -7.6°
Reaches altitude 10° 17:54:19 10° 339° (NNW) 2,328 6.8 -8.0°
Maximum altitude 17:59:37 85° 67° (ENE) 787 4.0 -8.9°
Drops below altitude 10° 18:04:56 10° 157° (SSE) 2,328 6.3 -9.8°
Sets 18:07:18 0° 158° (SSE) 3,254 7.0 -10.2°
